Content
SEND FEEDBACK

Daily
Averages
Monthly
Summary
Canada

WATERLOO WELLING, ONTARIO


Home > North America > Canada > Ontario
Elevation: 1031 feet     Latitude: 43 27N     Longitude: 080 23W

WEATHER
 
SELECT A DAY
Number of Records: 259,479;   Date Range: 1/1/95 - 8/27/14
 
SHARE

PRINT THIS DATA

[ ← Previous Day ]
WEATHER ALMANAC - JANUARY 21, 2013
[ Next Day → ]
[ °C ]   °F
Weather ElementAverageHighLow
Temperature13.6 °F18 °F (1:00 pm)8.6 °F (10:00 pm)
Dewpoint6.1 °F12.2 °F (2:30 pm)1.4 °F (8:00 pm)
Humidity71.4 %85 % (5:37 pm)45 % (1:00 pm)
Barometer29.94 in30.08 in (1:00 am)29.87 in (2:00 pm)
Wind Speed15.9 mph27.6 mph (4:15 pm)
Wind Gust36.8 mph (4:15 pm)
Weather ElementAverage
Visibility7.1 mi
Wind DirectionWSW (261.4 °)

Weather ElementTotal
Precipitation---
Heating Degree Days51.7 (Base 65)
Averaged from 59 records on January 21, 2013
WEATHER CONDITIONS BREAKOUT
WIND DIRECTION BREAKOUT
WEATHER BY HOUR - JANUARY 21, 2013
[ °C ]   °F
Local TimeTemperatureDewpointHumidityBarometerVisibilityWind DirectionWind SpeedGust SpeedPrecipitationEventsConditions
1:00 AM15.0 °F7.0 °F57 %30.08 in10.0 miWSW (250°)9.2 mphOvercast
1:00 AM14.0 °F6.8 °F73 %30.08 in9.0 miWSW (250°)9.2 mphOvercast
2:00 AM15.8 °F6.8 °F68 %30.06 in9.0 miWSW (250°)10.4 mphOvercast
3:00 AM14.0 °F6.8 °F73 %30.05 in9.0 miWSW (250°)9.2 mphOvercast
4:00 AM14.0 °F6.8 °F73 %30.03 in9.0 miWest (260°)11.5 mph17.3 mphOvercast
5:00 AM14.0 °F6.8 °F73 %30.02 in9.0 miWSW (240°)9.2 mphOvercast
6:00 AM14.0 °F8.6 °F79 %30.01 in9.0 miSW (230°)12.7 mphOvercast
6:02 AM14.0 °F8.6 °F79 %30.01 in9.0 miSW (230°)11.5 mph18.4 mphSnowLight Snow
6:50 AM14.0 °F6.8 °F73 %30.00 in9.0 miSW (230°)9.2 mphOvercast
7:00 AM14.0 °F7.0 °F63 %30.00 in10.0 miSW (230°)9.2 mphOvercast
7:00 AM14.0 °F6.8 °F73 %30.00 in9.0 miWSW (240°)10.4 mphOvercast
8:00 AM14.0 °F6.8 °F73 %29.99 in9.0 miWSW (240°)10.4 mphOvercast
9:00 AM14.0 °F5.0 °F67 %29.99 in9.0 miWSW (240°)10.4 mphOvercast
10:00 AM15.8 °F6.8 °F68 %29.98 in9.0 miSW (230°)12.7 mphOvercast
12:00 PM17.6 °F6.8 °F63 %29.93 inWSW (240°)10.4 mphClear
1:00 PM18.0 °F6.0 °F45 %29.88 in10.0 miWest (260°)13.8 mph
1:00 PM17.6 °F6.8 °F63 %29.88 in9.0 miWest (270°)12.7 mph18.4 mphPartly Cloudy
2:00 PM17.6 °F6.8 °F63 %29.87 in9.0 miWest (280°)15.0 mphMostly Cloudy
2:18 PM17.6 °F10.4 °F73 %29.87 in6.0 miWest (260°)12.7 mph20.7 mphSnowLight Snow
2:30 PM17.6 °F12.2 °F79 %29.87 in4.0 miWNW (290°)15.0 mphSnowLight Snow
2:41 PM15.8 °F8.6 °F73 %29.87 in9.0 miWest (280°)17.3 mphSnowLight Snow
3:00 PM15.8 °F6.8 °F68 %29.87 in9.0 miWest (260°)17.3 mphSnowLight Snow
3:06 PM15.8 °F6.8 °F68 %29.87 in9.0 miWest (260°)19.6 mph29.9 mphMostly Cloudy
3:42 PM15.8 °F6.8 °F68 %29.89 in6.0 miWest (270°)20.7 mph29.9 mphSnowLight Snow
3:49 PM15.8 °F5.0 °F62 %29.88 in6.0 miWest (260°)19.6 mph28.8 mphMostly Cloudy
4:00 PM15.8 °F6.8 °F68 %29.89 in9.0 miWest (260°)20.7 mph28.8 mphScattered Clouds
4:15 PM14.0 °F8.6 °F79 %29.89 in4.0 miWest (270°)27.6 mph36.8 mphMostly Cloudy
4:16 PM14.0 °F8.6 °F79 %29.90 in2.5 miWest (270°)26.5 mph36.8 mphSnowLight Snow
4:20 PM14.0 °F8.6 °F79 %29.90 in1.5 miWest (280°)19.6 mph36.8 mphSnowLight Snow
4:26 PM14.0 °F8.6 °F79 %29.90 in2.2 miWSW (250°)18.4 mph27.6 mphSnowLight Snow
4:29 PM14.0 °F6.8 °F73 %29.90 in4.0 miWest (260°)18.4 mphSnowLight Snow
4:31 PM14.0 °F5.0 °F67 %29.90 in7.0 miWest (270°)19.6 mph25.3 mphSnowLight Snow
4:35 PM14.0 °F5.0 °F67 %29.90 in9.0 miWest (270°)17.3 mph25.3 mphScattered Clouds
5:00 PM14.0 °F5.0 °F67 %29.91 in9.0 miWest (280°)18.4 mph26.5 mphMostly Cloudy
5:15 PM14.0 °F6.8 °F73 %29.92 in5.0 miWest (260°)17.3 mphHaze
5:16 PM14.0 °F6.8 °F73 %29.91 in4.0 miWest (260°)17.3 mphSnowLight Snow
5:23 PM14.0 °F6.8 °F73 %29.92 in2.2 miWest (280°)15.0 mph23.0 mphSnowLight Snow
5:30 PM14.0 °F8.6 °F79 %29.92 in2.5 miWNW (290°)17.3 mph24.2 mphOvercast
5:33 PM14.0 °F8.6 °F79 %29.92 inWest (280°)12.7 mph24.2 mphSnowLight Snow
5:37 PM12.2 °F8.6 °F85 %29.93 in1.0 miWest (280°)16.1 mph23.0 mphSnowLight Snow
5:43 PM12.2 °F6.8 °F79 %29.93 in2.0 miWest (270°)20.7 mph28.8 mphSnowLight Snow
5:45 PM12.2 °F5.0 °F73 %29.93 in3.0 miWest (270°)20.7 mph28.8 mphSnowLight Snow
5:47 PM12.2 °F5.0 °F73 %29.93 in7.0 miWest (270°)19.6 mph28.8 mphSnowLight Snow
5:53 PM12.2 °F5.0 °F73 %29.93 in9.0 miWest (270°)17.3 mph24.2 mphMostly Cloudy
5:57 PM12.2 °F5.0 °F73 %29.93 in9.0 miWest (270°)13.8 mph24.2 mphMostly Cloudy
6:00 PM12.2 °F3.2 °F67 %29.93 in9.0 miWest (280°)17.3 mph24.2 mphMostly Cloudy
6:28 PM12.2 °F5.0 °F73 %29.94 in5.0 miWest (280°)18.4 mph25.3 mphHaze
6:31 PM12.2 °F5.0 °F73 %29.94 in3.0 miWNW (290°)20.7 mph26.5 mphSnowLight Snow
6:39 PM10.4 °F3.2 °F73 %29.94 in7.0 miWest (270°)19.6 mph31.1 mphSnowLight Snow
6:44 PM10.4 °F3.2 °F73 %29.94 in9.0 miWest (270°)20.7 mph28.8 mphScattered Clouds
7:00 PM11.0 °F4.0 °F60 %29.94 in10.0 miWest (270°)17.3 mph
7:00 PM10.4 °F3.2 °F73 %29.94 in9.0 miWest (270°)15.0 mph27.6 mphPartly Cloudy
8:00 PM10.4 °F1.4 °F67 %29.94 in9.0 miWest (260°)16.1 mph26.5 mph
8:50 PM10.4 °F5.0 °F79 %29.94 in5.0 miWSW (240°)15.0 mphSnowLight Snow
8:54 PM10.4 °F3.2 °F73 %29.94 in6.0 miWSW (250°)18.4 mph26.5 mphSnowLight Snow
8:59 PM10.4 °F3.2 °F73 %29.94 in9.0 miWest (260°)16.1 mph26.5 mphPartly Cloudy
9:00 PM10.4 °F3.2 °F73 %29.94 in9.0 miWest (260°)17.3 mph26.5 mphPartly Cloudy
10:00 PM8.6 °F1.4 °F73 %29.94 in9.0 miWest (260°)17.3 mph31.1 mphClear
11:00 PM8.6 °F1.4 °F73 %29.95 in9.0 miWSW (250°)17.3 mphClear
Hourly data recorded from CYKF, located miles away from Waterloo Welling, Ontario







STORIES FROM OUR PARTNERS